Torna al catalogo

CZ-6A DEB

AttivoSSO
NORAD 54461·DEBRIS·🇨🇳 China

Lanciato Nov 11, 2022 da Taiyuan Satellite Launch Center

Loading…

Prossimi Passaggi (prossime 24 ore)

TLE

AggiornatoSource: Space-Track

Epoca: Sep 14, 2026, 22:51 UTC

1 54461U 22151GM  26257.95270887  .00000293  00000-0  21606-3 0  9991
2 54461  99.0198 251.6645 0127329 154.5011 206.2508 13.99190578195547

Traccia CZ-6A DEB in tempo reale con AllMySat

Download on the App Store